Location: Alafon
(8.4500°N, 4.2333°E)
Time: 23:18:53
(UTC+00:00)

Explorer 7 - Pass Details

Date: 30 July 2021
Orbit: 484 x 676 km, 50.3° (Epoch: 22 September)

Event Time Altitude Azimuth Distance (km) Brightness Sun altitude
Rises 03:17:35 0° 233° (SW) 2,553 - -32.1°
Reaches altitude 10° 03:19:54 10° 242° (WSW) 1,660 - -31.6°
Maximum altitude 03:23:19 34° 308° (NW) 803 - -30.8°
Exits shadow 03:26:24 12° 13° (NNE) 1,530 9.5 -30.1°
Drops below altitude 10° 03:26:45 10° 15° (NNE) 1,655 9.7 -30.1°
Sets 03:29:03 0° 25° (NNE) 2,545 10.9 -29.6°
